GFSFLT2_850_dewp_033.txt.gz
Dewpoint
-0 -3 -3 -2 -5 -8 -8 -7 -6 -0 -0 0 -1 -1 -3 -3 -3 -4 -4 -4 -3 -3 -2 -2 -2 -2 -2 -2 -2 -2 -4 -5
-3 -5 -5 -7 -10 -8 -8 -7 -0 1 2 1 -0 -1 -2 -3 -3 -3 -2 -2 -1 -1 -1 -1 -1 -0 -1 -2 -2 -1 -2 -2
-5 -9 -11 -13 -9 -8 -6 -2 2 1 1 1 1 -0 -1 -3 -2 -2 -0 1 1 1 1 1 1 1 0 -0 -1 -1 -1 -1
-4 -11 -13 -11 -8 -4 -1 1 2 2 1 1 2 2 0 -0 -1 0 1 1 2 3 3 2 1 0 0 0 0 -0 -1 -1
0 -3 -2 -1 1 3 4 3 5 6 5 2 3 4 3 3 2 1 1 2 2 2 2 1 0 0 1 1 1 -0 -2 -3
3 4 6 6 6 7 7 6 7 8 8 7 5 5 5 3 3 3 2 2 2 2 2 1 0 1 1 1 1 -0 -2 -5
2 6 7 7 8 8 8 8 9 9 10 9 7 5 5 4 4 4 4 3 4 3 3 2 1 1 1 1 0 -0 -1 -4
4 6 7 7 8 8 8 9 9 9 9 8 8 7 5 5 5 5 5 5 5 3 2 1 1 1 0 -1 -1 -3 -4 -6
8 5 7 8 8 9 8 7 8 8 8 7 7 8 6 6 6 6 5 3 2 1 1 0 -1 -3 -5 -6 -8 -9 -11 -13
8 8 8 9 8 8 8 6 7 7 7 7 8 7 6 6 5 3 2 1 1 1 -1 -4 -8 -12 -16 -19 -21 -22 -22 -22
9 9 9 8 7 6 8 7 8 7 7 6 5 5 4 3 2 1 1 0 -1 -4 -10 -15 -19 -21 -22 -22 -24 -27 -28 -27
8 10 9 8 6 8 7 7 5 5 5 4 3 2 1 0 1 1 0 -3 -11 -16 -18 -19 -20 -21 -23 -23 -25 -24 -17 -11
9 9 9 8 7 7 5 5 4 2 1 1 0 0 1 2 1 -4 -10 -12 -14 -15 -16 -15 -16 -19 -21 -12 -10 -12 -13 -14
9 9 5 6 6 4 2 1 0 1 1 1 1 2 1 -2 -6 -9 -9 -8 -10 -12 -12 -13 -15 -20 -19 -6 -7 -8 -4 -12
4 2 2 2 1 0 0 0 0 0 1 1 2 1 -1 -6 -10 -13 -11 -11 -11 -9 -8 -7 -11 -15 -16 -6 -7 -8 -5 -5
0 0 0 1 1 1 1 2 2 2 2 2 1 -3 -7 -8 -10 -10 -9 -9 -8 -6 -6 -8 -11 -10 -13 -8 -7 -5 -6 -8
1 1 1 2 2 2 2 2 2 1 1 -0 -5 -6 -6 -6 -7 -7 -8 -7 -5 -5 -8 -10 -10 -9 -5 -6 -5 -5 -6 -5
2 2 2 3 2 2 2 1 1 -0 -3 -6 -7 -7 -6 -5 -5 -6 -6 -5 -4 -7 -8 -7 -8 -10 -11 -8 -6 -7 -7 -6
3 3 3 2 0 0 0 -0 -2 -5 -7 -6 -4 -4 -4 -4 -4 -4 -4 -3 -3 -6 -7 -4 -7 -9 -11 -9 -10 -9 -7 -7
3 2 1 0 -0 -1 -2 -5 -6 -6 -4 -3 -3 -4 -4 -6 -5 -3 -3 -3 -4 -5 -4 -4 -6 -9 -11 -11 -11 -11 -11 -10

GFSFLT2_850_dewp_036.txt.gz
Dewpoint
12 9 4 2 -1 -5 -4 -3 -4 0 -0 -0 -1 -3 -2 -3 -3 -3 -3 -2 -2 -1 -1 -1 -1 -1 -1 -1 -1 -1 4 4
11 11 9 -1 -6 -4 -3 -3 2 1 2 0 0 -1 -3 -3 -2 -2 -2 -0 -0 -0 -0 -0 -0 -0 -0 -0 0 3 3 3
11 10 10 8 6 -3 -2 2 4 3 3 2 2 8 3 3 -1 -1 -1 0 0 0 -0 -0 -0 1 0 1 2 3 3 2
-0 -3 -5 -6 5 -1 -1 5 8 9 8 5 9 5 7 7 -0 -0 1 1 1 1 0 0 1 2 2 2 2 1 1 1
6 -9 -9 -4 3 6 9 9 7 6 5 7 6 6 5 8 3 2 2 2 3 3 3 2 2 1 1 2 2 1 0 -0
-1 -9 -6 -3 6 8 6 9 8 10 8 6 6 7 5 4 3 2 3 3 3 3 3 3 2 2 2 2 1 1 1 0
3 0 2 3 6 7 8 8 10 9 9 8 8 6 6 5 4 4 5 4 4 4 3 3 2 2 1 0 -1 0 0 -0
6 6 5 6 7 8 8 9 9 9 9 7 7 8 7 6 6 6 6 5 4 3 2 1 1 1 -0 -0 -4 -2 -2 -2
8 6 7 7 7 8 8 7 7 7 7 7 7 8 8 6 6 6 4 2 1 1 -0 -1 -1 -2 -4 -5 -3 -4 -4 -2
8 7 8 9 9 8 7 4 5 6 8 8 8 7 7 6 4 2 1 1 -1 -3 -3 -4 -5 -4 -6 -8 -6 -7 -9 -2
8 9 8 9 8 7 7 5 7 8 7 6 5 4 3 2 1 1 0 -2 -5 -7 -5 -4 -5 -4 -7 -8 -7 -7 -9 -5
8 9 10 9 7 4 6 7 7 5 5 4 3 2 0 1 1 -1 -4 -5 -5 -11 -8 -5 -6 -4 -7 -7 -7 -6 -5 -4
7 8 9 9 3 8 7 6 5 4 2 2 2 1 1 1 -2 -4 -7 -5 -13 -10 -7 -6 -6 -4 -6 -9 -9 -6 -3 -4
7 8 6 6 5 6 5 4 2 2 1 1 1 1 0 -3 -6 -4 -6 -6 -4 -3 -3 -4 -7 -5 -4 -6 -10 -10 -10 -5
6 7 5 2 2 1 1 1 1 1 1 1 2 0 -4 -5 -7 -9 -7 -4 -5 -3 -3 -3 -5 -6 -5 -5 -6 -9 -8 -8
8 6 5 1 1 3 2 3 3 3 3 3 0 -4 -6 -9 -10 -9 -4 -3 -2 -3 -4 -2 -3 -5 -5 -6 -5 -5 -6 -7
6 6 5 3 2 4 4 4 3 3 2 1 -0 -1 -7 -5 -3 -2 -2 -2 -2 -1 -1 -2 -3 -3 -3 -6 -6 -6 -6 -6
5 4 4 2 3 2 3 3 2 1 -0 -2 -3 -3 -2 -2 -1 -1 -1 -1 -1 -1 -1 -2 -2 -2 -3 -4 -5 -6 -7 -7
5 4 4 3 2 2 2 2 0 -1 -1 -3 -2 -3 -2 -2 -1 -1 -2 -2 -2 -2 -2 -2 -2 -3 -3 -3 -5 -5 -5 -6
4 4 4 2 1 1 0 -3 -1 -2 -2 -2 -2 -2 -2 -3 -5 -5 -5 -5 -4 -3 -2 -3 -3 -4 -3 -4 -4 -5 -6 -6

GFSFLT2_850_dewp_042.txt.gz
Dewpoint
11 11 10 5 2 0 -2 -3 -7 -5 -2 -2 -3 -3 -4 -3 -4 -4 -3 -2 -1 -1 -1 -1 -1 1 1 1 2 2 1 2
11 10 6 2 -0 -3 -2 -5 -3 0 -0 -2 -1 -1 -2 -3 -3 -2 -2 -1 -0 0 0 0 2 4 3 3 3 2 1 1
8 5 2 0 -2 -1 -3 -1 1 1 2 5 8 9 8 6 -1 -1 -1 0 1 2 2 3 4 4 4 4 4 3 2 2
11 9 10 8 -2 -2 -1 2 4 4 3 10 10 10 9 9 7 0 1 3 5 6 6 5 5 5 5 4 4 3 2 2
10 9 8 8 5 -1 4 8 10 10 9 10 10 9 9 9 8 8 8 7 7 6 6 6 5 5 4 4 3 2 2 1
10 9 7 7 6 8 8 10 9 10 9 9 8 8 9 8 8 8 7 7 6 6 5 5 5 4 3 2 1 1 -2 0
9 6 8 6 9 8 10 10 10 9 8 7 8 9 8 7 7 7 7 6 6 5 5 5 2 0 -1 -1 -2 -3 -4 -2
7 4 5 9 10 10 9 9 9 8 10 9 9 8 7 9 8 7 6 6 5 3 2 -0 -2 -2 -3 -3 -3 -5 -7 -6
8 8 10 10 10 8 9 8 8 5 7 6 6 7 8 8 8 7 6 5 1 0 -1 -2 -3 -4 -7 -5 -4 -6 -8 -7
10 10 10 10 10 9 8 7 4 3 4 4 6 7 8 7 7 6 2 0 -1 -1 -2 -5 -9 -8 -8 -6 -6 -6 -7 -6
11 11 10 9 8 8 8 6 3 3 2 5 6 6 5 4 3 1 0 -1 -1 -2 -5 -10 -8 -6 -5 -6 -5 -6 -5 -8
10 10 8 7 7 7 8 7 6 5 4 6 5 3 2 1 1 0 -0 -2 -3 -5 -5 -2 -3 -3 -4 -5 -5 -5 -7 -7
10 10 9 8 7 8 7 6 4 6 6 5 3 2 1 1 0 -0 -1 -1 -3 -4 -3 -2 -2 -3 -3 -4 -4 -5 -6 -8
11 10 10 9 9 8 4 6 6 5 4 3 4 3 2 -0 0 0 -1 -4 -7 -3 -3 -3 -2 -3 -3 -4 -4 -5 -5 -6
10 11 10 9 9 8 7 4 5 5 4 4 4 2 1 0 -1 -1 -3 -3 -2 -2 -2 -2 -2 -3 -5 -3 -3 -4 -4 -5
10 10 9 10 9 7 5 5 4 4 3 4 4 3 2 1 -1 -2 -1 -1 -2 -2 -2 -3 -3 -2 -3 -3 -3 -3 -3 -4
11 10 9 8 4 5 4 4 4 3 3 3 3 2 1 -1 -2 -2 -1 -1 -1 -2 -2 -2 -2 -2 -2 -2 -2 -2 -4 -3
9 8 8 6 5 4 4 5 4 4 3 3 1 -0 -2 -3 -3 -2 -1 -1 -4 -4 -5 -5 -5 -5 -3 -3 -1 -2 -2 -3
8 7 6 5 5 5 5 5 4 3 1 1 0 -2 -3 -3 -3 -3 -6 -6 -6 -6 -6 -6 -5 -5 -3 -2 -1 -2 -3 -3
7 6 5 5 5 6 5 4 3 -0 1 0 -1 -2 -3 -3 -5 -6 -7 -7 -7 -7 -6 -5 -6 -3 -3 -2 -2 -2 -3 -4

GFSFLT2_850_dewp_045.txt.gz
Dewpoint
10 8 8 8 2 -2 -4 -6 -8 -6 -3 -4 -5 -6 -6 -6 -4 -3 -2 -2 -2 -1 -1 0 3 3 3 3 2 2 2 2
7 9 9 5 0 -3 -5 -8 -4 -2 -4 -3 -4 -5 -5 -3 -4 -3 -2 -1 -0 0 1 3 4 4 4 4 4 3 2 2
10 10 5 1 -4 -4 -6 -2 0 -2 -2 3 3 5 6 3 -1 -2 -1 0 3 6 5 5 5 4 4 4 4 3 1 2
9 4 2 -2 -4 -4 -1 1 0 2 8 9 7 8 7 6 7 5 6 6 7 6 6 6 6 5 5 4 3 2 -0 -2
9 9 5 -3 -4 -1 3 3 4 6 10 10 9 8 7 8 8 8 7 7 7 6 6 5 5 5 3 2 2 0 -0 -3
11 9 8 4 -3 4 7 8 7 8 5 10 10 9 8 9 8 8 7 7 7 6 6 5 5 2 -0 -1 -2 -2 -3 -5
9 8 6 6 8 9 10 8 8 8 7 7 8 6 9 9 8 8 7 7 6 5 5 3 0 -2 -3 -3 -3 -3 -4 -8
9 7 6 8 9 9 9 9 8 9 7 7 7 8 8 7 7 7 7 6 6 4 1 -1 -3 -7 -10 -12 -7 -7 -7 -9
4 7 7 10 9 8 9 9 7 5 7 8 8 8 7 7 8 8 7 6 3 -0 -1 -4 -9 -14 -13 -9 -6 -6 -6 -11
1 7 8 9 9 8 8 8 7 6 5 5 4 6 6 7 8 7 4 1 -1 -1 -3 -8 -12 -10 -12 -9 -8 -7 -9 -10
7 5 6 8 8 8 8 7 5 3 3 3 4 5 5 5 4 2 0 -0 -1 -2 -7 -13 -8 -6 -5 -5 -6 -7 -6 -6
6 8 10 10 8 8 8 7 6 5 4 5 5 4 1 1 0 -0 -0 -0 -1 -4 -8 -5 -4 -5 -3 -4 -5 -7 -6 -6
9 8 9 9 7 6 6 8 7 6 6 5 5 1 1 1 0 0 -0 -0 -2 -7 -5 -4 -5 -3 -3 -4 -4 -5 -4 -7
10 9 7 6 6 7 8 7 5 5 6 5 1 -0 1 1 0 0 0 -1 -4 -7 -6 -7 -5 -2 -2 -3 -4 -5 -4 -5
8 9 9 8 8 9 6 6 6 5 3 0 -0 1 2 1 0 0 -1 -3 -4 -4 -4 -5 -2 -3 -3 -1 -2 -3 -3 -3
10 10 9 8 8 8 7 6 1 -0 1 2 2 3 3 1 0 -2 -2 -2 -1 -2 -2 -2 -3 -2 -2 -3 -2 -2 -2 -2
11 10 10 9 9 8 5 3 3 3 3 3 4 3 2 0 -2 -1 -1 -1 -1 -1 -1 -8 -8 -7 -7 -6 -3 -3 -3 -1
10 9 8 9 9 6 5 4 4 4 4 4 4 2 1 0 -1 -2 -2 -2 -1 -3 -17 -14 -8 -7 -6 -5 -3 -2 -2 -2
9 9 9 9 5 5 4 5 4 4 3 3 1 -0 -2 -2 -3 -3 -3 -3 -13 -18 -14 -10 -8 -6 -5 -4 -3 -3 -1 -2
7 9 9 8 5 5 5 5 5 3 3 2 1 1 -1 0 -3 -4 -9 -14 -15 -14 -11 -7 -5 -3 -3 -3 -3 -3 -3 -4

GFSFLT2_850_dewp_048.txt.gz
Dewpoint
12 11 9 5 1 -3 -6 -10 -7 -5 -5 -7 -7 -7 -6 -5 -4 -3 -2 -2 -2 -1 -0 2 3 3 3 3 3 3 2 2
9 6 3 4 -0 -4 -7 -6 -4 -4 -5 -7 -7 -6 -5 -5 -3 -2 -2 -1 0 2 3 4 4 4 4 4 4 3 1 0
7 6 5 4 -2 -4 -6 -2 -3 -4 -5 -6 -6 -5 -3 -3 -3 -1 1 1 4 4 5 5 5 5 5 4 2 0 -1 -2
6 7 7 0 -3 -5 -3 -2 -3 -2 -1 -2 -1 3 3 7 6 7 6 6 6 5 5 5 5 5 5 2 0 -1 -2 -3
9 6 5 -0 -3 -3 1 1 5 4 6 7 5 7 7 8 8 7 7 6 6 6 6 5 5 5 2 -1 -2 -3 -3 -4
7 7 2 -1 -3 -0 0 1 7 7 8 9 8 9 9 9 8 7 7 6 6 6 6 5 5 0 -2 -4 -7 -5 -4 -5
8 6 -1 -2 -1 3 5 7 4 3 9 9 10 9 8 9 8 8 7 7 6 6 5 3 -1 -3 -9 -11 -12 -9 -8 -8
11 8 4 -2 5 7 8 7 5 5 5 8 9 8 9 8 8 8 7 7 6 6 1 -1 -5 -12 -16 -15 -12 -9 -7 -7
9 6 6 7 8 9 9 7 9 9 9 7 7 8 9 8 8 8 7 7 6 0 -1 -4 -12 -14 -13 -12 -11 -11 -10 -11
8 7 6 7 8 8 9 9 9 9 8 9 8 7 6 7 8 8 7 5 -0 -1 -2 -8 -11 -9 -10 -9 -8 -8 -11 -6
8 7 6 9 9 10 10 9 9 8 8 6 4 5 6 7 8 5 1 -1 -1 -1 -4 -10 -10 -9 -9 -7 -6 -6 -10 -6
-4 3 6 10 10 9 9 9 8 6 4 4 5 5 5 4 2 -0 -1 -0 -0 -1 -7 -10 -8 -10 -7 -4 -5 -8 -6 -9
-3 0 6 8 9 8 8 7 7 6 6 5 5 5 2 -0 -1 -1 -0 0 -1 -4 -7 -6 -11 -12 -11 -12 -13 -6 -6 -6
5 4 4 6 7 6 7 7 7 8 7 6 5 3 0 -1 -0 -0 0 -0 -3 -4 -5 -7 -10 -9 -10 -10 -5 -6 -5 -4
8 8 7 7 9 8 7 7 7 6 6 5 4 1 0 0 1 1 -1 -2 -3 -4 -5 -5 -3 -3 -6 -4 -4 -3 -4 -3
9 9 9 9 8 7 7 8 5 5 5 4 1 0 2 3 2 0 -1 -2 -3 -4 -3 -2 -2 -7 -13 -11 -9 -7 -3 -2
9 10 10 9 8 8 8 7 5 4 1 2 3 3 3 2 1 -1 -1 -2 -2 -2 -2 -2 -6 -18 -13 -10 -8 -5 -3 -1
9 10 10 9 9 8 7 5 3 2 3 3 4 4 3 2 1 1 -1 -2 -2 -2 -5 -15 -23 -20 -16 -11 -7 -4 -4 -3
9 10 9 9 9 8 5 4 3 4 4 4 4 4 3 2 0 -1 -2 -2 -3 -8 -17 -24 -20 -13 -9 -7 -4 -3 -3 -4
10 10 8 7 8 8 5 5 4 5 4 4 4 3 2 -1 1 1 -2 -5 -10 -18 -23 -21 -12 -6 -4 -4 -3 -4 -5 -4